Location: Springville
(37.3745°N, 89.2676°W)
Time: 14:39:39
(UTC+00:00)

NOSS 3-3 (C) - Pass Details

Date: 29 October 2020
Orbit: 827 x 1385 km, 63.5° (Epoch: 29 November)

Event Time Altitude Azimuth Distance (km) Brightness Sun altitude
Rises 23:21:59 0° 193° (SSW) 3,363 7.2 -4.7°
Reaches altitude 10° 23:24:25 10° 188° (S) 2,457 6.4 -5.2°
Maximum altitude 23:29:48 48° 115° (ESE) 1,151 4.1 -6.2°
Drops below altitude 10° 23:35:45 10° 43° (NE) 2,712 5.8 -7.4°
Sets 23:38:33 0° 38° (NE) 3,747 6.6 -7.9°
